Location: K�ln
(50.9455°N, 6.9544°E)
Time: 18:38:56
(UTC+01:00)

ISS - Pass Details

Date: 10 January 2018
Orbit: 402 x 407 km, 51.6° (Epoch: 17 January)

Event Time Altitude Azimuth Distance (km) Brightness Sun altitude
Exits shadow 06:31:39 58° 245° (WSW) 480 -3.8 -18.1°
Maximum altitude 06:32:04 67° 199° (SSW) 446 -3.8 -18.0°
Drops below altitude 10° 06:35:20 10° 117° (ESE) 1,466 0.2 -17.5°
Sets 06:37:25 0° 114° (ESE) 2,325 1.7 -17.2°
